Voltar ao catálogo

SL-19 R/B

AtivoPO
NORAD 32957·ROCKET BODY·🇷🇺 Russia

Lançado May 23, 2008 de Plesetsk Cosmodrome

Loading…

Próximas Passagens (próximas 24 horas)

TLE

AtualizadoSource: Space-Track

Época: Sep 14, 2026, 07:59 UTC

1 32957U 08025E   26257.33313387  .00000013  00000-0  68186-5 0  9992
2 32957  82.5058  21.0410 0199588 183.7083 204.1483 12.77762165853983

Acompanhe SL-19 R/B em tempo real com AllMySat

Download on the App Store